TimeEDT,TemperatureF,Dew PointF,Humidity,Sea Level PressureIn,VisibilityMPH,Wind Direction,Wind SpeedMPH,Gust SpeedMPH,PrecipitationIn,Events,Conditions,WindDirDegrees,DateUTC
12:51 AM,79.0,72.0,79,30.28,10.0,Calm,Calm,-,N/A,,Clear,0,2013-07-16 04:51:00
1:51 AM,77.0,72.0,84,30.29,10.0,Calm,Calm,-,N/A,,Partly Cloudy,0,2013-07-16 05:51:00
2:51 AM,75.9,72.0,87,30.27,10.0,North,3.5,-,N/A,,Clear,10,2013-07-16 06:51:00
3:51 AM,75.0,72.0,90,30.28,10.0,Calm,Calm,-,N/A,,Clear,0,2013-07-16 07:51:00
4:51 AM,73.9,71.1,91,30.28,10.0,Calm,Calm,-,N/A,,Partly Cloudy,0,2013-07-16 08:51:00
5:51 AM,73.9,71.1,91,30.29,10.0,Calm,Calm,-,N/A,,Mostly Cloudy,0,2013-07-16 09:51:00
6:51 AM,75.0,71.1,87,30.30,10.0,Calm,Calm,-,N/A,,Partly Cloudy,0,2013-07-16 10:51:00
7:51 AM,78.1,72.0,81,30.32,10.0,South,3.5,-,N/A,,Partly Cloudy,190,2013-07-16 11:51:00
8:51 AM,81.0,72.0,74,30.33,10.0,Calm,Calm,-,N/A,,Clear,0,2013-07-16 12:51:00
9:51 AM,84.9,73.0,67,30.32,10.0,North,3.5,-,N/A,,Clear,10,2013-07-16 13:51:00
10:51 AM,88.0,72.0,59,30.32,10.0,NNE,4.6,-,N/A,,Partly Cloudy,20,2013-07-16 14:51:00
11:51 AM,91.0,71.1,52,30.31,10.0,ENE,6.9,-,N/A,,Scattered Clouds,70,2013-07-16 15:51:00
12:51 PM,90.0,69.1,50,30.30,10.0,Variable,3.5,-,N/A,,Scattered Clouds,0,2013-07-16 16:51:00
1:51 PM,91.0,69.1,48,30.29,10.0,Variable,3.5,-,N/A,,Scattered Clouds,0,2013-07-16 17:51:00
2:51 PM,91.0,70.0,50,30.27,10.0,Calm,Calm,-,N/A,,Scattered Clouds,0,2013-07-16 18:51:00
3:51 PM,91.9,70.0,48,30.26,10.0,NW,4.6,-,N/A,,Partly Cloudy,310,2013-07-16 19:51:00
4:51 PM,91.9,69.1,47,30.25,10.0,Variable,3.5,-,N/A,,Mostly Cloudy,0,2013-07-16 20:51:00
5:51 PM,91.0,71.1,52,30.25,10.0,SE,6.9,-,N/A,,Mostly Cloudy,140,2013-07-16 21:51:00
6:51 PM,90.0,71.1,54,30.25,10.0,SSE,4.6,-,N/A,,Mostly Cloudy,160,2013-07-16 22:51:00
7:51 PM,84.9,72.0,65,30.25,10.0,West,11.5,-,0.00,,Mostly Cloudy,270,2013-07-16 23:51:00
8:51 PM,86.0,71.1,61,30.26,10.0,NNW,4.6,-,N/A,,Mostly Cloudy,330,2013-07-17 00:51:00
9:51 PM,84.0,72.0,67,30.26,10.0,NE,3.5,-,N/A,,Mostly Cloudy,50,2013-07-17 01:51:00
10:51 PM,82.9,72.0,69,30.27,10.0,Calm,Calm,-,N/A,,Mostly Cloudy,0,2013-07-17 02:51:00
11:51 PM,81.0,73.0,77,30.27,10.0,Calm,Calm,-,N/A,,Scattered Clouds,0,2013-07-17 03:51:00